[[{"header":{"parameterUnit":"m.s-1","parameterCategory":1,"la1":30.2991,"la2":30.254,"lo1":-89.0895,"lo2":-89.0444,"dy":0.0017,"dx":0.0017,"nx":28,"ny":28,"refTime":"2024-04-22T21:00:00:Z","depth":0,"parameterNumber":2,"parameterNumberName":"U-component_of_WINDS"},"data":[0,0,0,0,0,0,0,0,0,0,0,0,0,0,0,0,0,0,0,0,0,0,0,0,0,0,0,0,0,0,0,0,0,0,0,0,0,0,0,0,0,0,0,0,0,0,0,0,0,0,0,0,0,0,0,0,0,0,-1.1823,-1.1822,0,-1.1765,-1.1764,-1.1763,-1.1708,-1.1707,-1.1706,-1.1706,-1.1645,-1.1644,-1.1643,0,0,0,0,0,0,0,0,0,0,0,0,0,-1.1884,-1.1883,-1.1823,-1.1822,-1.1821,-1.1765,-1.1764,-1.1763,-1.1708,-1.1707,-1.1706,-1.1706,-1.1646,-1.1644,-1.1643,0,0,0,0,0,0,0,0,0,0,0,0,0,-1.1845,-1.1883,-1.1823,-1.1787,-1.1783,-1.1765,-1.1764,-1.1763,-1.1708,-1.1707,-1.1706,-1.1705,-1.1646,-1.1645,-1.1643,-1.1655,0,0,-1.1639,-1.1638,0,0,0,0,0,0,0,0,-1.1847,-1.1843,-1.1793,-1.1789,-1.1785,-1.1742,-1.1763,-1.1727,-1.1708,-1.1737,-1.1706,-1.1705,-1.1678,-1.1674,-1.1666,-1.1653,-1.165,-1.1639,-1.1638,-1.1637,-1.1637,0,0,0,0,0,0,0,-1.185,-1.1845,-1.18,-1.1792,-1.1788,-1.1773,-1.1766,-1.1756,-1.1714,-1.1734,-1.173,-1.1724,-1.1676,-1.1667,-1.1664,-1.1649,-1.1639,-1.1637,-1.1637,-1.1636,-1.1642,-1.1643,0,0,0,0,0,0,-1.1858,-1.1847,-1.1802,-1.1798,-1.1814,-1.1773,-1.1765,-1.1757,-1.1714,-1.1707,-1.1725,-1.1722,-1.167,-1.1666,-1.1661,-1.1673,-1.1637,-1.1636,-1.1635,-1.1641,-1.1643,-1.1644,0,0,0,0,0,0,-1.186,-1.1855,-1.1804,-1.1822,-1.1814,-1.1773,-1.1764,-1.1757,-1.1748,-1.1707,-1.1699,-1.1724,-1.1669,-1.1663,-1.1657,-1.167,-1.1635,-1.1634,-1.164,-1.1642,-1.1643,-1.1696,0,0,0,0,0,0,-1.1862,-1.1856,-1.186,-1.1822,-1.1813,-1.1801,-1.1765,-1.1756,-1.1746,-1.1741,-1.1704,-1.1697,-1.1668,-1.166,-1.1656,-1.1667,-1.1633,-1.1639,-1.1641,-1.1643,-1.1693,-1.1699,-1.1704,0,0,0,0,0,-1.1864,-1.1877,-1.1861,-1.1856,-1.1818,-1.1802,-1.1797,-1.1764,-1.1747,-1.1751,-1.1725,-1.1698,-1.1669,-1.166,-1.1655,-1.1666,-1.1638,-1.164,-1.1642,-1.169,-1.1698,-1.1704,0,0,0,0,0,0,-1.1918,-1.1872,-1.1853,-1.1854,-1.1833,-1.1793,-1.1797,-1.1773,-1.1756,-1.1752,-1.1711,-1.1703,-1.1701,-1.1683,-1.1673,-1.1675,-1.165,-1.1651,-1.1688,-1.1694,-1.17,-1.1705,-1.1632,0,0,0,0,0,-1.193,-1.1921,-1.1881,-1.1886,-1.1876,-1.1839,-1.183,-1.1807,-1.1782,-1.1773,-1.1746,-1.1724,-1.1709,-1.1701,-1.1685,-1.1689,-1.168,-1.1695,-1.17,-1.1705,-1.1707,-1.1708,-1.1713,-1.1651,-1.1651,-1.1651,0,0,-1.1955,-1.1928,-1.1925,-1.1896,-1.1877,-1.1868,-1.1831,-1.1824,-1.1817,-1.1772,-1.1764,-1.1744,-1.1716,-1.1715,-1.1713,-1.1699,-1.1722,-1.1708,-1.1712,-1.1712,-1.1711,-1.1716,-1.1722,-1.1653,-1.1653,-1.1652,0,0,-1.1995,-1.1975,-1.1976,-1.1957,-1.1928,-1.1903,-1.1904,-1.1868,-1.1852,-1.1844,-1.181,-1.1801,-1.1777,-1.1758,-1.1746,-1.1778,-1.1753,-1.1774,-1.1805,-1.1806,-1.181,-1.1815,-1.1826,-1.1831,-1.1776,-1.1776,-1.1777,0,-1.203,-1.2016,-1.198,-1.1975,-1.1963,-1.1921,-1.1923,-1.1906,-1.1873,-1.1866,-1.185,-1.182,-1.1798,-1.1792,-1.18,-1.1791,-1.1789,-1.1779,-1.1813,-1.1816,-1.182,-1.183,-1.1835,-1.1779,-1.1779,-1.1779,-1.1778,0,-1.2059,-1.205,-1.2055,-1.2025,-1.2013,-1.2011,-1.1975,-1.1967,-1.1944,-1.192,-1.1912,-1.1884,-1.1862,-1.1859,-1.1836,-1.185,-1.1842,-1.182,-1.1794,-1.1829,-1.1838,-1.1842,-1.1783,-1.1782,-1.1781,-1.1781,0,0,-1.2133,-1.2083,-1.2085,-1.2071,-1.2035,-1.2027,-1.2023,-1.2002,-1.1996,-1.1974,-1.1969,-1.195,-1.193,-1.1915,-1.189,-1.1891,-1.1918,-1.1869,-1.1868,-1.1879,-1.1931,-1.1948,-1.1953,-1.1901,-1.1902,-1.1902,-1.1933,0,-1.2168,-1.2158,-1.2126,-1.2126,-1.2117,-1.2077,-1.2073,-1.205,-1.2028,-1.2016,-1.1991,-1.1978,-1.1952,-1.1943,-1.1942,-1.1916,-1.1928,-1.1913,-1.1896,-1.1896,-1.1905,-1.1958,-1.1975,-1.2006,-1.1937,-1.1937,-1.1938,0,-1.2208,-1.2189,-1.2188,-1.2153,-1.2148,-1.2145,-1.2123,-1.2112,-1.2085,-1.2069,-1.2053,-1.2025,-1.2017,-1.1992,-1.1981,-1.1971,-1.1962,-1.1948,-1.1948,-1.1946,-1.1919,-1.1957,-1.2015,-1.202,-1.1943,-1.1943,-1.1942,0,-1.2262,-1.2236,-1.2233,-1.2221,-1.218,-1.2179,-1.2161,-1.2134,-1.2123,-1.2103,-1.2095,-1.2075,-1.2064,-1.2048,-1.2015,-1.2,-1.2007,-1.198,-1.1993,-1.1994,-1.1997,-1.1997,-1.2055,-1.1991,-1.1991,-1.1991,-1.1991,0,-1.2304,-1.2305,-1.2256,-1.2254,-1.2254,-1.2216,-1.2217,-1.2195,-1.2171,-1.2163,-1.2127,-1.212,-1.2077,-1.2065,-1.2039,-1.2033,-1.2028,-1.2015,-1.2008,-1.2018,-1.202,-1.2012,-1.2009,-1.1992,-1.1991,-1.1991,-1.1991,0,-1.2365,-1.2332,-1.2325,-1.2286,-1.2277,-1.2278,-1.2245,-1.224,-1.2215,-1.2206,-1.2202,-1.2163,-1.2147,-1.2112,-1.2087,-1.2069,-1.207,-1.2057,-1.2079,-1.2075,-1.209,-1.209,-1.2145,-1.215,-1.2083,-1.2084,-1.2084,0,-1.2395,-1.2395,-1.2356,-1.2348,-1.2332,-1.2321,-1.2309,-1.2272,-1.2261,-1.223,-1.223,-1.2211,-1.2195,-1.2171,-1.214,-1.212,-1.2107,-1.2128,-1.2104,-1.2114,-1.2107,-1.2108,-1.2108,-1.2133,-1.2134,-1.2135,-1.2136,0,-1.2451,-1.2434,-1.242,-1.24,-1.2387,-1.2369,-1.2349,-1.2345,-1.2302,-1.2292,-1.2276,-1.2263,-1.2237,-1.2219,-1.2195,-1.2176,-1.2149,-1.2143,-1.2145,-1.2156,-1.2169,-1.2162,-1.2094,-1.2142,-1.2142,-1.2141,-1.2141,-1.2141,-1.2497,-1.2495,-1.2467,-1.2452,-1.2433,-1.2415,-1.2409,-1.2383,-1.2369,-1.2346,-1.2324,-1.231,-1.2282,-1.2246,-1.2229,-1.2217,-1.2203,-1.2206,-1.2207,-1.2208,-1.2213,-1.2171,-1.2212,-1.2212,-1.2212,-1.2211,-1.2211,0,-1.2551,-1.2531,-1.2518,-1.2491,-1.2479,-1.2455,-1.2431,-1.2422,-1.241,-1.2387,-1.2371,-1.2352,-1.2334,-1.2301,-1.228,-1.2277,-1.2264,-1.2273,-1.2273,-1.2269,-1.2226,-1.2227,-1.2284,-1.2284,-1.2284,-1.2284,-1.2284,-1.2283,-1.2578,-1.2574,-1.2554,-1.2539,-1.2519,-1.2505,-1.2493,-1.2476,-1.2458,-1.2438,-1.2423,-1.2402,-1.2374,-1.2351,-1.2333,-1.2324,-1.2318,-1.2331,-1.2318,-1.2279,-1.2272,-1.2265,-1.2266,-1.233,-1.233,-1.2361,-1.2362,-1.2362]},{"header":{"parameterUnit":"m.s-1","parameterCategory":1,"la1":30.2991,"la2":30.254,"lo1":-89.0895,"lo2":-89.0444,"dy":0.0017,"dx":0.0017,"nx":28,"ny":28,"refTime":"2024-04-22T21:00:00:Z","depth":0,"parameterNumber":3,"parameterNumberName":"V-component_of_WINDS"},"data":[0,0,0,0,0,0,0,0,0,0,0,0,0,0,0,0,0,0,0,0,0,0,0,0,0,0,0,0,0,0,0,0,0,0,0,0,0,0,0,0,0,0,0,0,0,0,0,0,0,0,0,0,0,0,0,0,0,0,-4.2819,-4.282,0,-4.2838,-4.2838,-4.2839,-4.2826,-4.2825,-4.2825,-4.2824,-4.284,-4.2841,-4.2842,0,0,0,0,0,0,0,0,0,0,0,0,0,-4.2771,-4.2772,-4.2819,-4.282,-4.282,-4.2838,-4.2838,-4.2839,-4.2826,-4.2825,-4.2825,-4.2824,-4.284,-4.2841,-4.2842,0,0,0,0,0,0,0,0,0,0,0,0,0,-4.2791,-4.2773,-4.2819,-4.2816,-4.2816,-4.2838,-4.2838,-4.2839,-4.2826,-4.2825,-4.2824,-4.2824,-4.284,-4.2841,-4.2842,-4.2868,0,0,-4.2847,-4.2847,0,0,0,0,0,0,0,0,-4.279,-4.2793,-4.2816,-4.2816,-4.2816,-4.2829,-4.2827,-4.2848,-4.2826,-4.2822,-4.2824,-4.2823,-4.2837,-4.2839,-4.2844,-4.2869,-4.287,-4.2847,-4.2848,-4.2848,-4.2849,0,0,0,0,0,0,0,-4.2789,-4.2792,-4.2827,-4.2817,-4.2817,-4.2813,-4.2815,-4.2831,-4.2834,-4.2822,-4.2822,-4.2824,-4.2837,-4.2842,-4.2844,-4.287,-4.2847,-4.2848,-4.2849,-4.285,-4.2919,-4.292,0,0,0,0,0,0,-4.2788,-4.2791,-4.2826,-4.2827,-4.2801,-4.2814,-4.2817,-4.2826,-4.2834,-4.2834,-4.2825,-4.2823,-4.284,-4.2842,-4.2845,-4.2877,-4.2848,-4.285,-4.2851,-4.2918,-4.2919,-4.292,0,0,0,0,0,0,-4.2787,-4.2791,-4.2825,-4.2809,-4.2813,-4.2816,-4.2826,-4.2826,-4.2832,-4.2836,-4.2836,-4.283,-4.284,-4.2843,-4.2863,-4.2877,-4.285,-4.2852,-4.2917,-4.2918,-4.292,-4.294,0,0,0,0,0,0,-4.2786,-4.2791,-4.2801,-4.2809,-4.2814,-4.2844,-4.2827,-4.2827,-4.2835,-4.2833,-4.2841,-4.2841,-4.2839,-4.2861,-4.2864,-4.2879,-4.2853,-4.2915,-4.2917,-4.2919,-4.2938,-4.2942,-4.2946,0,0,0,0,0,-4.2784,-4.2805,-4.2802,-4.2806,-4.2827,-4.2845,-4.2847,-4.2846,-4.2836,-4.2846,-4.2849,-4.2841,-4.2875,-4.2863,-4.2867,-4.2882,-4.2915,-4.2917,-4.2919,-4.2937,-4.2941,-4.2946,0,0,0,0,0,0,-4.2796,-4.2806,-4.2802,-4.2827,-4.2835,-4.2843,-4.2855,-4.2851,-4.2861,-4.2859,-4.2856,-4.2858,-4.2879,-4.2882,-4.2869,-4.2908,-4.2893,-4.2896,-4.2905,-4.291,-4.2913,-4.2912,-4.2854,0,0,0,0,0,-4.2802,-4.2817,-4.2824,-4.2845,-4.285,-4.2852,-4.286,-4.2858,-4.2866,-4.2869,-4.2873,-4.2881,-4.2894,-4.2902,-4.2913,-4.2939,-4.2941,-4.2951,-4.2954,-4.2957,-4.296,-4.2975,-4.298,-4.2927,-4.2927,-4.2927,0,0,-4.2814,-4.2821,-4.283,-4.2848,-4.2854,-4.2869,-4.2855,-4.2871,-4.2882,-4.2871,-4.2892,-4.2895,-4.2903,-4.2927,-4.2937,-4.293,-4.2975,-4.296,-4.2962,-4.2964,-4.2978,-4.2983,-4.2988,-4.2929,-4.2929,-4.2928,0,0,-4.2843,-4.285,-4.2869,-4.2877,-4.2887,-4.2889,-4.2894,-4.2902,-4.2905,-4.2925,-4.2918,-4.2931,-4.2952,-4.2959,-4.2965,-4.2999,-4.2993,-4.3003,-4.3022,-4.3037,-4.3041,-4.3045,-4.3058,-4.3063,-4.3006,-4.3006,-4.3006,0,-4.2856,-4.288,-4.2879,-4.2897,-4.2905,-4.2898,-4.2917,-4.2924,-4.2937,-4.2943,-4.2935,-4.2963,-4.2968,-4.2994,-4.3002,-4.3007,-4.3013,-4.3002,-4.3041,-4.3044,-4.3048,-4.3061,-4.3065,-4.3007,-4.3007,-4.3007,-4.3007,0,-4.2896,-4.2912,-4.2926,-4.2942,-4.2951,-4.297,-4.2972,-4.2981,-4.2979,-4.2982,-4.3003,-4.3009,-4.3023,-4.3029,-4.3026,-4.3055,-4.305,-4.3041,-4.3026,-4.3054,-4.3066,-4.3071,-4.3009,-4.3008,-4.3008,-4.3008,0,0,-4.2933,-4.2949,-4.2954,-4.2962,-4.2974,-4.2987,-4.3005,-4.302,-4.3029,-4.3038,-4.3054,-4.3073,-4.3066,-4.3073,-4.3071,-4.3084,-4.3112,-4.3074,-4.3074,-4.3082,-4.3146,-4.3153,-4.3159,-4.3108,-4.3109,-4.311,-4.3145,0,-4.2964,-4.2997,-4.2998,-4.3029,-4.3044,-4.3039,-4.3055,-4.3064,-4.3067,-4.308,-4.3083,-4.3097,-4.3086,-4.309,-4.3103,-4.3106,-4.3125,-4.3103,-4.3122,-4.3123,-4.3122,-4.3165,-4.3172,-4.3205,-4.315,-4.3151,-4.3151,0,-4.3004,-4.3018,-4.3051,-4.3063,-4.3069,-4.3084,-4.3098,-4.3111,-4.3121,-4.3123,-4.3132,-4.3128,-4.3147,-4.3131,-4.3157,-4.3142,-4.315,-4.3153,-4.3154,-4.3157,-4.3139,-4.3169,-4.3216,-4.3221,-4.3158,-4.3158,-4.3157,0,-4.303,-4.3056,-4.3079,-4.3086,-4.31,-4.3111,-4.3117,-4.3126,-4.3136,-4.3148,-4.3154,-4.3168,-4.3175,-4.3186,-4.3186,-4.3175,-4.3213,-4.3197,-4.3215,-4.3215,-4.3223,-4.3223,-4.3273,-4.3227,-4.3227,-4.3226,-4.3226,0,-4.3065,-4.3085,-4.3091,-4.3106,-4.3129,-4.3129,-4.3152,-4.3157,-4.3166,-4.3181,-4.3176,-4.319,-4.3189,-4.3203,-4.3204,-4.3226,-4.3229,-4.323,-4.323,-4.3231,-4.3231,-4.3237,-4.3235,-4.3228,-4.3228,-4.3227,-4.3227,0,-4.3097,-4.3102,-4.3127,-4.314,-4.3143,-4.316,-4.317,-4.3183,-4.3187,-4.3206,-4.321,-4.3215,-4.3232,-4.3233,-4.3252,-4.3252,-4.3279,-4.3276,-4.3276,-4.3276,-4.3294,-4.3293,-4.335,-4.3358,-4.3306,-4.3306,-4.3307,0,-4.312,-4.3136,-4.3151,-4.3161,-4.3169,-4.3185,-4.3196,-4.3197,-4.3208,-4.3222,-4.3234,-4.3251,-4.3264,-4.3291,-4.3296,-4.331,-4.3308,-4.3327,-4.331,-4.3311,-4.331,-4.3309,-4.3311,-4.3331,-4.3331,-4.3332,-4.3332,0,-4.316,-4.3162,-4.3178,-4.3195,-4.3208,-4.3221,-4.3234,-4.3242,-4.3245,-4.3258,-4.3276,-4.3286,-4.3307,-4.3323,-4.3338,-4.3343,-4.3339,-4.3338,-4.3343,-4.3344,-4.3344,-4.3346,-4.3286,-4.3336,-4.3336,-4.3335,-4.3335,-4.3335,-4.3189,-4.3203,-4.3217,-4.3235,-4.3245,-4.3258,-4.3272,-4.3278,-4.3293,-4.3311,-4.3311,-4.3331,-4.3342,-4.3361,-4.3368,-4.3383,-4.3377,-4.3384,-4.3386,-4.3388,-4.339,-4.3342,-4.3386,-4.3386,-4.3385,-4.3385,-4.3385,0,-4.323,-4.3239,-4.3256,-4.3274,-4.3289,-4.3285,-4.3298,-4.3311,-4.3329,-4.334,-4.3354,-4.3376,-4.3392,-4.3399,-4.3415,-4.3426,-4.3424,-4.343,-4.343,-4.3432,-4.3394,-4.3389,-4.3432,-4.3432,-4.3432,-4.3432,-4.3432,-4.3432,-4.3253,-4.3278,-4.3282,-4.3313,-4.3321,-4.3343,-4.3351,-4.3362,-4.3372,-4.3396,-4.3411,-4.3416,-4.3425,-4.3442,-4.3457,-4.3459,-4.3465,-4.3473,-4.3473,-4.3439,-4.3434,-4.3429,-4.3424,-4.3474,-4.3474,-4.3509,-4.3509,-4.351]}]]